Wetterdaten: Freitag, 31.07.2015
Datum Zeit Temp. A. Feuchte A. Luftdruck Regen Wind Richtung Richtung Sonnenschein ET UV Solar Taupunkt Windchill Windben Empfang
31.07.2015 00:00 15,0 C 74 % 1016,1 hPa 0,0 l/m 0,0 km/h (0 Bft) NO 43 0 min 0,000 mm 0,0 UV-I 0 W/m 10,4 C 15,0 C 0,0 km/h (0 Bft) 0,00 %
31.07.2015 00:05 15,0 C 74 % 1016,1 hPa 0,0 l/m 0,0 km/h (0 Bft) NO 40 0 min 0,000 mm 0,0 UV-I 0 W/m 10,4 C 15,0 C 0,0 km/h (0 Bft) 0,00 %
31.07.2015 00:10 14,9 C 75 % 1016,1 hPa 0,0 l/m 0,0 km/h (0 Bft) NO 50 0 min 0,000 mm 0,0 UV-I 0 W/m 10,5 C 14,9 C 0,0 km/h (0 Bft) 0,00 %
31.07.2015 00:15 14,9 C 74 % 1016,1 hPa 0,0 l/m 0,0 km/h (0 Bft) NO 52 0 min 0,000 mm 0,0 UV-I 0 W/m 10,3 C 14,9 C 0,0 km/h (0 Bft) 0,00 %
31.07.2015 00:20 14,8 C 74 % 1016,2 hPa 0,0 l/m 0,0 km/h (0 Bft) NO 51 0 min 0,000 mm 0,0 UV-I 0 W/m 10,2 C 14,8 C 0,0 km/h (0 Bft) 0,00 %
31.07.2015 00:25 14,8 C 75 % 1016,3 hPa 0,0 l/m 0,0 km/h (0 Bft) O-NO 64 0 min 0,000 mm 0,0 UV-I 0 W/m 10,4 C 14,8 C 0,0 km/h (0 Bft) 0,00 %
31.07.2015 00:30 14,7 C 76 % 1016,4 hPa 0,0 l/m 0,0 km/h (0 Bft) N-NO 25 0 min 0,000 mm 0,0 UV-I 0 W/m 10,5 C 14,7 C 0,0 km/h (0 Bft) 0,00 %
31.07.2015 00:35 14,6 C 76 % 1016,4 hPa 0,0 l/m 0,0 km/h (0 Bft) NO 39 0 min 0,000 mm 0,0 UV-I 0 W/m 10,4 C 14,6 C 0,0 km/h (0 Bft) 0,00 %
31.07.2015 00:40 14,6 C 75 % 1016,4 hPa 0,0 l/m 0,0 km/h (0 Bft) NO 45 0 min 0,000 mm 0,0 UV-I 0 W/m 10,2 C 14,6 C 0,0 km/h (0 Bft) 0,00 %
31.07.2015 00:45 14,6 C 75 % 1016,4 hPa 0,0 l/m 0,0 km/h (0 Bft) NO 48 0 min 0,000 mm 0,0 UV-I 0 W/m 10,2 C 14,6 C 0,0 km/h (0 Bft) 0,00 %
31.07.2015 00:50 14,6 C 75 % 1016,4 hPa 0,0 l/m 0,0 km/h (0 Bft) W-NW 282 0 min 0,000 mm 0,0 UV-I 0 W/m 10,2 C 14,6 C 0,0 km/h (0 Bft) 0,00 %
31.07.2015 00:55 14,7 C 74 % 1016,6 hPa 0,0 l/m 0,0 km/h (0 Bft) N-NW 348 0 min 0,000 mm 0,0 UV-I 0 W/m 10,1 C 14,7 C 0,0 km/h (0 Bft) 0,00 %
31.07.2015 01:00 14,8 C 73 % 1016,8 hPa 0,0 l/m 0,0 km/h (0 Bft) NO 48 0 min 0,000 mm 0,0 UV-I 0 W/m 10,0 C 14,8 C 0,0 km/h (0 Bft) 0,00 %
31.07.2015 01:05 14,9 C 73 % 1016,6 hPa 0,0 l/m 0,0 km/h (0 Bft) NO 43 0 min 0,000 mm 0,0 UV-I 0 W/m 10,1 C 14,9 C 0,0 km/h (0 Bft) 0,00 %
31.07.2015 01:10 15,0 C 73 % 1016,7 hPa 0,0 l/m 0,0 km/h (0 Bft) NO 45 0 min 0,000 mm 0,0 UV-I 0 W/m 10,2 C 15,0 C 0,0 km/h (0 Bft) 0,00 %
31.07.2015 01:15 15,0 C 73 % 1016,7 hPa 0,0 l/m 0,0 km/h (0 Bft) NO 46 0 min 0,000 mm 0,0 UV-I 0 W/m 10,2 C 15,0 C 0,0 km/h (0 Bft) 0,00 %
31.07.2015 01:20 15,0 C 73 % 1016,6 hPa 0,0 l/m 0,0 km/h (0 Bft) NO 48 0 min 0,000 mm 0,0 UV-I 0 W/m 10,2 C 15,0 C 0,0 km/h (0 Bft) 0,00 %
31.07.2015 01:25 14,9 C 74 % 1016,7 hPa 0,0 l/m 0,0 km/h (0 Bft) N-NO 32 0 min 0,000 mm 0,0 UV-I 0 W/m 10,3 C 14,9 C 0,0 km/h (0 Bft) 0,00 %
31.07.2015 01:30 14,9 C 74 % 1016,5 hPa 0,0 l/m 0,0 km/h (0 Bft) NO 44 0 min 0,000 mm 0,0 UV-I 0 W/m 10,3 C 14,9 C 0,0 km/h (0 Bft) 0,00 %
31.07.2015 01:35 14,9 C 74 % 1016,7 hPa 0,0 l/m 0,0 km/h (0 Bft) NO 44 0 min 0,000 mm 0,0 UV-I 0 W/m 10,3 C 14,9 C 0,0 km/h (0 Bft) 0,00 %
31.07.2015 01:40 14,9 C 75 % 1016,8 hPa 0,0 l/m 0,0 km/h (0 Bft) NO 40 0 min 0,000 mm 0,0 UV-I 0 W/m 10,5 C 14,9 C 0,0 km/h (0 Bft) 0,00 %
31.07.2015 01:45 14,8 C 76 % 1016,8 hPa 0,0 l/m 0,0 km/h (0 Bft) NO 44 0 min 0,000 mm 0,0 UV-I 0 W/m 10,6 C 14,8 C 0,0 km/h (0 Bft) 0,00 %
31.07.2015 01:50 14,8 C 76 % 1016,8 hPa 0,0 l/m 0,0 km/h (0 Bft) NO 41 0 min 0,000 mm 0,0 UV-I 0 W/m 10,6 C 14,8 C 0,0 km/h (0 Bft) 0,00 %
31.07.2015 01:55 14,8 C 77 % 1017,0 hPa 0,0 l/m 0,0 km/h (0 Bft) NO 41 0 min 0,000 mm 0,0 UV-I 0 W/m 10,8 C 14,8 C 0,0 km/h (0 Bft) 0,00 %
31.07.2015 02:00 14,7 C 77 % 1016,6 hPa 0,0 l/m 0,0 km/h (0 Bft) NO 40 0 min 0,000 mm 0,0 UV-I 0 W/m 10,7 C 14,7 C 0,0 km/h (0 Bft) 0,00 %
31.07.2015 02:05 14,7 C 77 % 1016,8 hPa 0,0 l/m 0,0 km/h (0 Bft) NO 53 0 min 0,000 mm 0,0 UV-I 0 W/m 10,7 C 14,7 C 0,0 km/h (0 Bft) 0,00 %
31.07.2015 02:10 14,6 C 78 % 1016,6 hPa 0,0 l/m 0,0 km/h (0 Bft) NO 42 0 min 0,000 mm 0,0 UV-I 0 W/m 10,8 C 14,6 C 0,0 km/h (0 Bft) 0,00 %
31.07.2015 02:15 14,5 C 79 % 1016,9 hPa 0,0 l/m 0,0 km/h (0 Bft) NO 40 0 min 0,000 mm 0,0 UV-I 0 W/m 10,9 C 14,5 C 0,0 km/h (0 Bft) 0,00 %
31.07.2015 02:20 14,5 C 79 % 1016,8 hPa 0,0 l/m 0,0 km/h (0 Bft) NO 41 0 min 0,000 mm 0,0 UV-I 0 W/m 10,9 C 14,5 C 0,0 km/h (0 Bft) 0,00 %
31.07.2015 02:25 14,5 C 80 % 1016,6 hPa 0,0 l/m 0,0 km/h (0 Bft) NO 43 0 min 0,000 mm 0,0 UV-I 0 W/m 11,1 C 14,5 C 0,0 km/h (0 Bft) 0,00 %
31.07.2015 02:30 14,5 C 79 % 1016,8 hPa 0,0 l/m 0,0 km/h (0 Bft) NO 43 0 min 0,000 mm 0,0 UV-I 0 W/m 10,9 C 14,5 C 0,0 km/h (0 Bft) 0,00 %
31.07.2015 02:35 14,5 C 80 % 1016,6 hPa 0,0 l/m 0,0 km/h (0 Bft) N-NO 25 0 min 0,000 mm 0,0 UV-I 0 W/m 11,1 C 14,5 C 0,0 km/h (0 Bft) 0,00 %
31.07.2015 02:40 14,5 C 79 % 1016,6 hPa 0,0 l/m 0,0 km/h (0 Bft) NO 36 0 min 0,000 mm 0,0 UV-I 0 W/m 10,9 C 14,5 C 0,0 km/h (0 Bft) 0,00 %
31.07.2015 02:45 14,5 C 78 % 1016,6 hPa 0,0 l/m 0,0 km/h (0 Bft) N-NO 26 0 min 0,000 mm 0,0 UV-I 0 W/m 10,7 C 14,5 C 0,0 km/h (0 Bft) 0,00 %
31.07.2015 02:50 14,5 C 78 % 1016,6 hPa 0,0 l/m 0,0 km/h (0 Bft) N 357 0 min 0,000 mm 0,0 UV-I 0 W/m 10,7 C 14,5 C 0,0 km/h (0 Bft) 0,00 %
31.07.2015 02:55 14,4 C 78 % 1016,6 hPa 0,0 l/m 0,0 km/h (0 Bft) N-NO 30 0 min 0,000 mm 0,0 UV-I 0 W/m 10,6 C 14,4 C 0,0 km/h (0 Bft) 0,00 %
31.07.2015 03:00 14,4 C 79 % 1016,6 hPa 0,0 l/m 0,0 km/h (0 Bft) NO 40 0 min 0,000 mm 0,0 UV-I 0 W/m 10,8 C 14,4 C 0,0 km/h (0 Bft) 0,00 %
31.07.2015 03:05 14,3 C 80 % 1016,6 hPa 0,0 l/m 0,0 km/h (0 Bft) NO 44 0 min 0,000 mm 0,0 UV-I 0 W/m 10,9 C 14,3 C 0,0 km/h (0 Bft) 0,00 %
31.07.2015 03:10 14,2 C 80 % 1016,4 hPa 0,0 l/m 0,0 km/h (0 Bft) N-NO 28 0 min 0,000 mm 0,0 UV-I 0 W/m 10,8 C 14,2 C 0,0 km/h (0 Bft) 0,00 %
31.07.2015 03:15 14,1 C 80 % 1016,5 hPa 0,0 l/m 0,0 km/h (0 Bft) NO 43 0 min 0,000 mm 0,0 UV-I 0 W/m 10,7 C 14,1 C 0,0 km/h (0 Bft) 0,00 %
31.07.2015 03:20 14,1 C 80 % 1016,8 hPa 0,0 l/m 0,0 km/h (0 Bft) N-NO 32 0 min 0,000 mm 0,0 UV-I 0 W/m 10,7 C 14,1 C 0,0 km/h (0 Bft) 0,00 %
31.07.2015 03:25 14,0 C 82 % 1016,8 hPa 0,0 l/m 0,0 km/h (0 Bft) N 3 0 min 0,000 mm 0,0 UV-I 0 W/m 11,0 C 14,0 C 0,0 km/h (0 Bft) 0,00 %
31.07.2015 03:30 13,9 C 81 % 1016,7 hPa 0,0 l/m 0,0 km/h (0 Bft) NO 44 0 min 0,000 mm 0,0 UV-I 0 W/m 10,7 C 13,9 C 0,0 km/h (0 Bft) 0,00 %
31.07.2015 03:35 13,8 C 82 % 1016,7 hPa 0,0 l/m 0,0 km/h (0 Bft) NO 40 0 min 0,000 mm 0,0 UV-I 0 W/m 10,8 C 13,8 C 0,0 km/h (0 Bft) 0,00 %
31.07.2015 03:40 13,7 C 82 % 1016,7 hPa 0,0 l/m 0,0 km/h (0 Bft) N 352 0 min 0,000 mm 0,0 UV-I 0 W/m 10,7 C 13,7 C 0,0 km/h (0 Bft) 0,00 %
31.07.2015 03:45 13,6 C 82 % 1016,5 hPa 0,0 l/m 0,0 km/h (0 Bft) NO 36 0 min 0,000 mm 0,0 UV-I 0 W/m 10,6 C 13,6 C 0,0 km/h (0 Bft) 0,00 %
31.07.2015 03:50 13,5 C 82 % 1016,6 hPa 0,0 l/m 0,0 km/h (0 Bft) N-NW 347 0 min 0,000 mm 0,0 UV-I 0 W/m 10,5 C 13,5 C 0,0 km/h (0 Bft) 0,00 %
31.07.2015 03:55 13,5 C 82 % 1016,8 hPa 0,0 l/m 0,0 km/h (0 Bft) NO 49 0 min 0,000 mm 0,0 UV-I 0 W/m 10,5 C 13,5 C 0,0 km/h (0 Bft) 0,00 %
31.07.2015 04:00 13,5 C 82 % 1016,7 hPa 0,0 l/m 0,0 km/h (0 Bft) NO 52 0 min 0,000 mm 0,0 UV-I 0 W/m 10,5 C 13,5 C 0,0 km/h (0 Bft) 0,00 %
31.07.2015 04:05 13,4 C 82 % 1016,7 hPa 0,0 l/m 0,0 km/h (0 Bft) NO 45 0 min 0,000 mm 0,0 UV-I 0 W/m 10,4 C 13,4 C 0,0 km/h (0 Bft) 0,00 %
31.07.2015 04:10 13,4 C 82 % 1016,6 hPa 0,0 l/m 0,0 km/h (0 Bft) NO 40 0 min 0,000 mm 0,0 UV-I 0 W/m 10,4 C 13,4 C 0,0 km/h (0 Bft) 0,00 %
31.07.2015 04:15 13,4 C 82 % 1016,7 hPa 0,0 l/m 0,0 km/h (0 Bft) NO 43 0 min 0,000 mm 0,0 UV-I 0 W/m 10,4 C 13,4 C 0,0 km/h (0 Bft) 0,00 %
31.07.2015 04:20 13,3 C 82 % 1016,4 hPa 0,0 l/m 0,0 km/h (0 Bft) NO 44 0 min 0,000 mm 0,0 UV-I 0 W/m 10,3 C 13,3 C 0,0 km/h (0 Bft) 0,00 %
31.07.2015 04:25 13,3 C 82 % 1016,6 hPa 0,0 l/m 0,0 km/h (0 Bft) O-NO 58 0 min 0,000 mm 0,0 UV-I 0 W/m 10,3 C 13,3 C 0,0 km/h (0 Bft) 0,00 %
31.07.2015 04:30 13,2 C 82 % 1016,8 hPa 0,0 l/m 0,0 km/h (0 Bft) NO 46 0 min 0,000 mm 0,0 UV-I 0 W/m 10,2 C 13,2 C 0,0 km/h (0 Bft) 0,00 %
31.07.2015 04:35 13,2 C 83 % 1016,6 hPa 0,0 l/m 0,0 km/h (0 Bft) NO 41 0 min 0,000 mm 0,0 UV-I 0 W/m 10,4 C 13,2 C 0,0 km/h (0 Bft) 0,00 %
31.07.2015 04:40 13,0 C 84 % 1016,6 hPa 0,0 l/m 0,0 km/h (0 Bft) NO 51 0 min 0,000 mm 0,0 UV-I 0 W/m 10,4 C 13,0 C 0,0 km/h (0 Bft) 0,00 %
31.07.2015 04:45 12,9 C 84 % 1016,7 hPa 0,0 l/m 0,0 km/h (0 Bft) NO 43 0 min 0,000 mm 0,0 UV-I 0 W/m 10,3 C 12,9 C 0,0 km/h (0 Bft) 0,00 %
31.07.2015 04:50 12,8 C 84 % 1016,8 hPa 0,0 l/m 0,0 km/h (0 Bft) NO 50 0 min 0,000 mm 0,0 UV-I 0 W/m 10,2 C 12,8 C 0,0 km/h (0 Bft) 0,00 %
31.07.2015 04:55 12,7 C 84 % 1016,8 hPa 0,0 l/m 0,0 km/h (0 Bft) NO 42 0 min 0,000 mm 0,0 UV-I 0 W/m 10,1 C 12,7 C 0,0 km/h (0 Bft) 0,00 %
31.07.2015 05:00 12,6 C 85 % 1016,7 hPa 0,0 l/m 0,0 km/h (0 Bft) N-NO 32 0 min 0,000 mm 0,0 UV-I 0 W/m 10,1 C 12,6 C 0,0 km/h (0 Bft) 0,00 %
31.07.2015 05:05 12,4 C 86 % 1017,0 hPa 0,0 l/m 0,0 km/h (0 Bft) NO 46 0 min 0,000 mm 0,0 UV-I 0 W/m 10,1 C 12,4 C 0,0 km/h (0 Bft) 0,00 %
31.07.2015 05:10 12,3 C 86 % 1017,0 hPa 0,0 l/m 0,0 km/h (0 Bft) NO 56 0 min 0,000 mm 0,0 UV-I 0 W/m 10,0 C 12,3 C 0,0 km/h (0 Bft) 0,00 %
31.07.2015 05:15 12,3 C 88 % 1016,9 hPa 0,0 l/m 0,0 km/h (0 Bft) NO 56 0 min 0,000 mm 0,0 UV-I 0 W/m 10,4 C 12,3 C 0,0 km/h (0 Bft) 0,00 %
31.07.2015 05:20 12,1 C 88 % 1017,0 hPa 0,0 l/m 0,0 km/h (0 Bft) NO 56 0 min 0,000 mm 0,0 UV-I 0 W/m 10,2 C 12,1 C 0,0 km/h (0 Bft) 0,00 %
31.07.2015 05:25 11,9 C 88 % 1016,9 hPa 0,0 l/m 0,0 km/h (0 Bft) NO 56 0 min 0,000 mm 0,0 UV-I 0 W/m 10,0 C 11,9 C 0,0 km/h (0 Bft) 0,00 %
31.07.2015 05:30 11,7 C 89 % 1017,0 hPa 0,0 l/m 0,0 km/h (0 Bft) O-NO 59 0 min 0,000 mm 0,0 UV-I 0 W/m 9,9 C 11,7 C 0,0 km/h (0 Bft) 0,00 %
31.07.2015 05:35 11,4 C 90 % 1016,9 hPa 0,0 l/m 0,0 km/h (0 Bft) NO 44 0 min 0,000 mm 0,0 UV-I 0 W/m 9,8 C 11,4 C 0,0 km/h (0 Bft) 0,00 %
31.07.2015 05:40 11,2 C 90 % 1016,9 hPa 0,0 l/m 0,0 km/h (0 Bft) NO 43 0 min 0,000 mm 0,0 UV-I 0 W/m 9,6 C 11,2 C 0,0 km/h (0 Bft) 0,00 %
31.07.2015 05:45 11,1 C 91 % 1017,1 hPa 0,0 l/m 0,0 km/h (0 Bft) NO 43 0 min 0,000 mm 0,0 UV-I 0 W/m 9,7 C 11,1 C 0,0 km/h (0 Bft) 0,00 %
31.07.2015 05:50 11,0 C 91 % 1017,1 hPa 0,0 l/m 0,0 km/h (0 Bft) NO 48 0 min 0,000 mm 0,0 UV-I 3 W/m 9,6 C 11,0 C 0,0 km/h (0 Bft) 0,00 %
31.07.2015 05:55 11,0 C 92 % 1017,1 hPa 0,0 l/m 0,0 km/h (0 Bft) NO 42 0 min 0,000 mm 0,0 UV-I 6 W/m 9,8 C 11,0 C 0,0 km/h (0 Bft) 0,00 %
31.07.2015 06:00 11,0 C 92 % 1017,2 hPa 0,0 l/m 0,0 km/h (0 Bft) NO 51 0 min 0,000 mm 0,0 UV-I 12 W/m 9,8 C 11,0 C 0,0 km/h (0 Bft) 0,00 %
31.07.2015 06:05 11,0 C 93 % 1017,2 hPa 0,0 l/m 0,0 km/h (0 Bft) NO 48 0 min 0,000 mm 0,0 UV-I 21 W/m 9,9 C 11,0 C 0,0 km/h (0 Bft) 0,00 %
31.07.2015 06:10 11,1 C 93 % 1017,3 hPa 0,0 l/m 0,0 km/h (0 Bft) NO 40 0 min 0,000 mm 0,0 UV-I 27 W/m 10,0 C 11,1 C 0,0 km/h (0 Bft) 0,00 %
31.07.2015 06:15 11,3 C 94 % 1017,3 hPa 0,0 l/m 0,0 km/h (0 Bft) NO 51 0 min 0,000 mm 0,0 UV-I 42 W/m 10,4 C 11,3 C 0,0 km/h (0 Bft) 0,00 %
31.07.2015 06:20 11,4 C 94 % 1017,3 hPa 0,0 l/m 0,0 km/h (0 Bft) NO 48 5 min 0,000 mm 0,0 UV-I 58 W/m 10,5 C 11,4 C 0,0 km/h (0 Bft) 0,00 %
31.07.2015 06:25 11,6 C 93 % 1017,3 hPa 0,0 l/m 0,0 km/h (0 Bft) NO 43 5 min 0,000 mm 0,0 UV-I 87 W/m 10,5 C 11,6 C 0,0 km/h (0 Bft) 0,00 %
31.07.2015 06:30 12,0 C 93 % 1017,3 hPa 0,0 l/m 0,0 km/h (0 Bft) NO 51 5 min 0,000 mm 0,0 UV-I 128 W/m 10,9 C 12,0 C 0,0 km/h (0 Bft) 0,00 %
31.07.2015 06:35 12,4 C 90 % 1017,3 hPa 0,0 l/m 0,0 km/h (0 Bft) NO 44 5 min 0,000 mm 0,0 UV-I 122 W/m 10,8 C 12,4 C 0,0 km/h (0 Bft) 0,00 %
31.07.2015 06:40 13,0 C 87 % 1017,4 hPa 0,0 l/m 0,0 km/h (0 Bft) NO 41 5 min 0,000 mm 0,0 UV-I 107 W/m 10,9 C 13,0 C 0,0 km/h (0 Bft) 0,00 %
31.07.2015 06:45 13,5 C 83 % 1017,4 hPa 0,0 l/m 0,0 km/h (0 Bft) NO 35 0 min 0,000 mm 0,0 UV-I 82 W/m 10,7 C 13,5 C 0,0 km/h (0 Bft) 0,00 %
31.07.2015 06:50 13,9 C 82 % 1017,5 hPa 0,0 l/m 0,0 km/h (0 Bft) NO 43 0 min 0,000 mm 0,0 UV-I 83 W/m 10,9 C 13,9 C 0,0 km/h (0 Bft) 0,00 %
31.07.2015 06:55 14,0 C 81 % 1017,4 hPa 0,0 l/m 0,0 km/h (0 Bft) NO 42 0 min 0,000 mm 0,0 UV-I 93 W/m 10,8 C 14,0 C 0,0 km/h (0 Bft) 0,00 %
31.07.2015 07:00 14,0 C 81 % 1017,5 hPa 0,0 l/m 0,0 km/h (0 Bft) N-NO 31 0 min 0,000 mm 0,0 UV-I 106 W/m 10,8 C 14,0 C 0,0 km/h (0 Bft) 0,00 %
31.07.2015 07:05 14,0 C 81 % 1017,6 hPa 0,0 l/m 0,0 km/h (0 Bft) N-NO 25 5 min 0,000 mm 1,0 UV-I 193 W/m 10,8 C 14,0 C 0,0 km/h (0 Bft) 0,00 %
31.07.2015 07:10 14,3 C 80 % 1017,5 hPa 0,0 l/m 0,4 km/h (0 Bft) NW 317 0 min 0,000 mm 0,0 UV-I 106 W/m 10,9 C 14,3 C 4,0 km/h (1 Bft) 0,00 %
31.07.2015 07:15 14,6 C 80 % 1017,8 hPa 0,0 l/m 0,0 km/h (0 Bft) N 352 0 min 0,000 mm 0,0 UV-I 100 W/m 11,2 C 14,6 C 0,0 km/h (0 Bft) 0,00 %
31.07.2015 07:20 14,7 C 80 % 1017,7 hPa 0,0 l/m 0,0 km/h (0 Bft) NO 44 0 min 0,000 mm 1,0 UV-I 104 W/m 11,3 C 14,7 C 0,0 km/h (0 Bft) 0,00 %
31.07.2015 07:25 14,7 C 80 % 1017,8 hPa 0,0 l/m 0,0 km/h (0 Bft) N 355 0 min 0,000 mm 1,0 UV-I 115 W/m 11,3 C 14,7 C 0,0 km/h (0 Bft) 0,00 %
31.07.2015 07:30 14,8 C 78 % 1017,6 hPa 0,0 l/m 0,0 km/h (0 Bft) NO 52 0 min 0,000 mm 1,0 UV-I 119 W/m 11,0 C 14,8 C 0,0 km/h (0 Bft) 0,00 %
31.07.2015 07:35 14,9 C 78 % 1017,6 hPa 0,0 l/m 0,0 km/h (0 Bft) N-NW 343 0 min 0,000 mm 1,0 UV-I 108 W/m 11,1 C 14,9 C 0,0 km/h (0 Bft) 0,00 %
31.07.2015 07:40 14,9 C 78 % 1017,8 hPa 0,0 l/m 0,0 km/h (0 Bft) N 351 0 min 0,000 mm 1,0 UV-I 99 W/m 11,1 C 14,9 C 0,0 km/h (0 Bft) 0,00 %
31.07.2015 07:45 14,9 C 78 % 1018,0 hPa 0,0 l/m 0,0 km/h (0 Bft) NO 43 0 min 0,000 mm 1,0 UV-I 94 W/m 11,1 C 14,9 C 0,0 km/h (0 Bft) 0,00 %
31.07.2015 07:50 14,8 C 79 % 1018,2 hPa 0,0 l/m 0,0 km/h (0 Bft) N-NO 24 0 min 0,000 mm 1,0 UV-I 96 W/m 11,2 C 14,8 C 0,0 km/h (0 Bft) 0,00 %
31.07.2015 07:55 14,7 C 80 % 1018,2 hPa 0,0 l/m 0,0 km/h (0 Bft) W-NW 303 0 min 0,000 mm 1,0 UV-I 113 W/m 11,3 C 14,7 C 0,0 km/h (0 Bft) 0,00 %
31.07.2015 08:00 14,7 C 80 % 1018,1 hPa 0,0 l/m 0,0 km/h (0 Bft) NO 48 0 min 0,000 mm 1,0 UV-I 154 W/m 11,3 C 14,7 C 0,0 km/h (0 Bft) 0,00 %
31.07.2015 08:05 14,8 C 78 % 1018,2 hPa 0,0 l/m 0,0 km/h (0 Bft) NO 40 5 min 0,000 mm 1,0 UV-I 220 W/m 11,0 C 14,8 C 0,0 km/h (0 Bft) 0,00 %
31.07.2015 08:10 15,1 C 74 % 1018,3 hPa 0,0 l/m 1,8 km/h (1 Bft) W 265 5 min 0,000 mm 1,0 UV-I 296 W/m 10,5 C 15,1 C 4,0 km/h (1 Bft) 0,00 %
31.07.2015 08:15 15,6 C 72 % 1018,1 hPa 0,0 l/m 0,0 km/h (0 Bft) N-NO 24 5 min 0,000 mm 1,0 UV-I 285 W/m 10,6 C 15,6 C 0,0 km/h (0 Bft) 0,00 %
31.07.2015 08:20 16,3 C 68 % 1018,3 hPa 0,0 l/m 0,0 km/h (0 Bft) NO 37 5 min 0,000 mm 1,0 UV-I 305 W/m 10,4 C 16,3 C 0,0 km/h (0 Bft) 0,00 %
31.07.2015 08:25 17,1 C 65 % 1018,2 hPa 0,0 l/m 0,0 km/h (0 Bft) NW 315 5 min 0,000 mm 1,0 UV-I 292 W/m 10,5 C 17,1 C 0,0 km/h (0 Bft) 0,00 %
31.07.2015 08:30 17,6 C 63 % 1018,1 hPa 0,0 l/m 0,0 km/h (0 Bft) NO 40 5 min 0,000 mm 1,0 UV-I 436 W/m 10,5 C 17,6 C 0,0 km/h (0 Bft) 0,00 %
31.07.2015 08:35 18,2 C 62 % 1018,3 hPa 0,0 l/m 0,0 km/h (0 Bft) NO 36 5 min 0,000 mm 1,0 UV-I 453 W/m 10,8 C 18,2 C 0,0 km/h (0 Bft) 0,00 %
31.07.2015 08:40 18,9 C 59 % 1018,4 hPa 0,0 l/m 0,4 km/h (0 Bft) W-NW 302 5 min 0,000 mm 1,0 UV-I 478 W/m 10,7 C 18,9 C 4,0 km/h (1 Bft) 0,00 %
31.07.2015 08:45 19,5 C 56 % 1018,5 hPa 0,0 l/m 0,0 km/h (0 Bft) N-NW 346 5 min 0,000 mm 1,0 UV-I 292 W/m 10,5 C 19,5 C 0,0 km/h (0 Bft) 0,00 %
31.07.2015 08:50 19,9 C 60 % 1018,5 hPa 0,0 l/m 0,0 km/h (0 Bft) N-NW 338 0 min 0,000 mm 1,0 UV-I 262 W/m 11,9 C 19,9 C 0,0 km/h (0 Bft) 0,00 %
31.07.2015 08:55 19,9 C 58 % 1018,5 hPa 0,0 l/m 0,0 km/h (0 Bft) NO 46 0 min 0,000 mm 1,0 UV-I 229 W/m 11,4 C 19,9 C 0,0 km/h (0 Bft) 0,00 %
31.07.2015 09:00 19,8 C 58 % 1018,6 hPa 0,0 l/m 0,4 km/h (0 Bft) N-NW 341 5 min 0,000 mm 2,0 UV-I 467 W/m 11,3 C 19,8 C 4,0 km/h (1 Bft) 0,00 %
31.07.2015 09:05 19,9 C 55 % 1018,5 hPa 0,0 l/m 0,0 km/h (0 Bft) NO 54 5 min 0,000 mm 2,0 UV-I 476 W/m 10,6 C 19,9 C 0,0 km/h (0 Bft) 0,00 %
31.07.2015 09:10 20,3 C 50 % 1018,5 hPa 0,0 l/m 0,7 km/h (0 Bft) N 11 5 min 0,000 mm 2,0 UV-I 486 W/m 9,5 C 20,3 C 4,0 km/h (1 Bft) 0,00 %
31.07.2015 09:15 20,7 C 48 % 1018,5 hPa 0,0 l/m 0,4 km/h (0 Bft) N-NW 327 5 min 0,000 mm 2,0 UV-I 480 W/m 9,3 C 20,7 C 4,0 km/h (1 Bft) 0,00 %
31.07.2015 09:20 20,8 C 49 % 1018,6 hPa 0,0 l/m 0,0 km/h (0 Bft) N-NO 15 5 min 0,000 mm 2,0 UV-I 468 W/m 9,7 C 20,8 C 0,0 km/h (0 Bft) 0,00 %
31.07.2015 09:25 20,8 C 48 % 1018,4 hPa 0,0 l/m 0,0 km/h (0 Bft) NO 35 5 min 0,000 mm 2,0 UV-I 440 W/m 9,4 C 20,8 C 0,0 km/h (0 Bft) 0,00 %
31.07.2015 09:30 21,0 C 48 % 1018,2 hPa 0,0 l/m 0,0 km/h (0 Bft) N-NO 32 5 min 0,000 mm 2,0 UV-I 487 W/m 9,6 C 21,0 C 0,0 km/h (0 Bft) 0,00 %
31.07.2015 09:35 21,2 C 48 % 1018,4 hPa 0,0 l/m 1,8 km/h (1 Bft) N-NW 344 5 min 0,000 mm 2,0 UV-I 498 W/m 9,7 C 21,2 C 4,0 km/h (1 Bft) 0,00 %
31.07.2015 09:40 21,5 C 48 % 1018,3 hPa 0,0 l/m 1,4 km/h (1 Bft) NO 46 5 min 0,000 mm 2,0 UV-I 505 W/m 10,0 C 21,5 C 4,0 km/h (1 Bft) 0,00 %
31.07.2015 09:45 21,7 C 45 % 1018,4 hPa 0,0 l/m 1,8 km/h (1 Bft) O-SO 106 5 min 0,000 mm 2,0 UV-I 509 W/m 9,2 C 21,7 C 4,0 km/h (1 Bft) 0,00 %
31.07.2015 09:50 21,9 C 48 % 1018,3 hPa 0,0 l/m 0,0 km/h (0 Bft) NO 46 5 min 0,000 mm 2,0 UV-I 513 W/m 10,4 C 21,9 C 0,0 km/h (0 Bft) 0,00 %
31.07.2015 09:55 22,1 C 45 % 1018,2 hPa 0,0 l/m 0,0 km/h (0 Bft) N-NO 22 5 min 0,000 mm 2,0 UV-I 518 W/m 9,6 C 22,1 C 0,0 km/h (0 Bft) 0,00 %
31.07.2015 10:00 22,4 C 44 % 1018,4 hPa 0,0 l/m 0,0 km/h (0 Bft) NO 34 5 min 0,000 mm 2,0 UV-I 523 W/m 9,5 C 22,4 C 0,0 km/h (0 Bft) 0,00 %
31.07.2015 10:05 22,4 C 43 % 1018,3 hPa 0,0 l/m 0,0 km/h (0 Bft) O-NO 72 5 min 0,000 mm 2,0 UV-I 533 W/m 9,2 C 22,4 C 0,0 km/h (0 Bft) 0,00 %
31.07.2015 10:10 22,4 C 43 % 1018,0 hPa 0,0 l/m 0,0 km/h (0 Bft) NO 39 5 min 0,000 mm 2,0 UV-I 549 W/m 9,2 C 22,4 C 0,0 km/h (0 Bft) 0,00 %
31.07.2015 10:15 22,6 C 42 % 1018,2 hPa 0,0 l/m 0,4 km/h (0 Bft) NW 312 5 min 0,000 mm 2,0 UV-I 560 W/m 9,0 C 22,6 C 4,0 km/h (1 Bft) 0,00 %
31.07.2015 10:20 22,8 C 41 % 1018,3 hPa 0,0 l/m 0,0 km/h (0 Bft) NO 43 5 min 0,000 mm 3,0 UV-I 570 W/m 8,9 C 22,8 C 0,0 km/h (0 Bft) 0,00 %
31.07.2015 10:25 22,9 C 44 % 1018,2 hPa 0,0 l/m 0,0 km/h (0 Bft) N-NW 346 5 min 0,000 mm 3,0 UV-I 581 W/m 10,0 C 22,9 C 0,0 km/h (0 Bft) 0,00 %
31.07.2015 10:30 23,0 C 41 % 1018,2 hPa 0,0 l/m 0,4 km/h (0 Bft) W-NW 291 5 min 0,000 mm 3,0 UV-I 591 W/m 9,0 C 23,0 C 4,0 km/h (1 Bft) 0,00 %
31.07.2015 10:35 23,1 C 38 % 1018,3 hPa 0,0 l/m 1,4 km/h (1 Bft) NW 316 5 min 0,000 mm 3,0 UV-I 606 W/m 8,0 C 23,1 C 4,0 km/h (1 Bft) 0,00 %
31.07.2015 10:40 22,9 C 42 % 1018,1 hPa 0,0 l/m 3,2 km/h (1 Bft) O 101 5 min 0,000 mm 3,0 UV-I 620 W/m 9,3 C 22,9 C 4,0 km/h (1 Bft) 0,00 %
31.07.2015 10:45 22,9 C 38 % 1018,0 hPa 0,0 l/m 0,0 km/h (0 Bft) N 357 5 min 0,000 mm 3,0 UV-I 633 W/m 7,8 C 22,9 C 0,0 km/h (0 Bft) 0,00 %
31.07.2015 10:50 23,3 C 36 % 1018,0 hPa 0,0 l/m 0,4 km/h (0 Bft) NO 42 5 min 0,000 mm 3,0 UV-I 648 W/m 7,4 C 23,3 C 4,0 km/h (1 Bft) 0,00 %
31.07.2015 10:55 23,4 C 35 % 1018,3 hPa 0,0 l/m 0,4 km/h (0 Bft) N 6 5 min 0,000 mm 3,0 UV-I 650 W/m 7,1 C 23,4 C 4,0 km/h (1 Bft) 0,00 %
31.07.2015 11:00 23,1 C 38 % 1018,1 hPa 0,0 l/m 2,2 km/h (1 Bft) O-NO 73 5 min 0,000 mm 3,0 UV-I 673 W/m 8,0 C 23,1 C 4,0 km/h (1 Bft) 0,00 %
31.07.2015 11:05 23,1 C 39 % 1018,1 hPa 0,0 l/m 0,0 km/h (0 Bft) NO 48 5 min 0,000 mm 3,0 UV-I 688 W/m 8,4 C 23,1 C 0,0 km/h (0 Bft) 0,00 %
31.07.2015 11:10 23,2 C 35 % 1018,1 hPa 0,0 l/m 0,0 km/h (0 Bft) NO 54 5 min 0,000 mm 4,0 UV-I 690 W/m 6,9 C 23,2 C 0,0 km/h (0 Bft) 0,00 %
31.07.2015 11:15 23,5 C 37 % 1018,0 hPa 0,0 l/m 0,0 km/h (0 Bft) NO 36 5 min 0,000 mm 4,0 UV-I 707 W/m 8,0 C 23,5 C 0,0 km/h (0 Bft) 0,00 %
31.07.2015 11:20 23,9 C 38 % 1018,4 hPa 0,0 l/m 1,4 km/h (1 Bft) O-NO 72 5 min 0,000 mm 4,0 UV-I 720 W/m 8,7 C 23,9 C 4,0 km/h (1 Bft) 0,00 %
31.07.2015 11:25 24,1 C 34 % 1018,1 hPa 0,0 l/m 0,0 km/h (0 Bft) O-NO 57 5 min 0,000 mm 4,0 UV-I 731 W/m 7,2 C 24,1 C 0,0 km/h (0 Bft) 0,00 %
31.07.2015 11:30 24,2 C 37 % 1017,1 hPa 0,0 l/m 0,0 km/h (0 Bft) NO 37 5 min 0,000 mm 4,0 UV-I 731 W/m 8,6 C 24,2 C 0,0 km/h (0 Bft) 0,00 %
31.07.2015 11:35 24,5 C 33 % 1017,1 hPa 0,0 l/m 0,0 km/h (0 Bft) NO 43 5 min 0,000 mm 4,0 UV-I 736 W/m 7,2 C 24,5 C 0,0 km/h (0 Bft) 0,00 %
31.07.2015 11:40 24,6 C 33 % 1018,1 hPa 0,0 l/m 0,0 km/h (0 Bft) N 356 5 min 0,000 mm 4,0 UV-I 768 W/m 7,2 C 24,6 C 0,0 km/h (0 Bft) 0,00 %
31.07.2015 11:45 24,4 C 34 % 1017,9 hPa 0,0 l/m 2,2 km/h (1 Bft) N-NO 28 0 min 0,000 mm 1,0 UV-I 432 W/m 7,5 C 24,4 C 4,0 km/h (1 Bft) 0,00 %
31.07.2015 11:50 23,6 C 38 % 1017,9 hPa 0,0 l/m 4,0 km/h (1 Bft) N-NO 33 5 min 0,000 mm 4,0 UV-I 699 W/m 8,4 C 23,6 C 7,9 km/h (2 Bft) 0,00 %
31.07.2015 11:55 22,8 C 36 % 1017,9 hPa 0,0 l/m 1,4 km/h (1 Bft) O-NO 62 5 min 0,000 mm 4,0 UV-I 736 W/m 6,9 C 22,8 C 4,0 km/h (1 Bft) 0,00 %
31.07.2015 12:00 22,3 C 39 % 1018,0 hPa 0,0 l/m 0,4 km/h (0 Bft) N-NO 20 5 min 0,000 mm 4,0 UV-I 749 W/m 7,7 C 22,3 C 4,0 km/h (1 Bft) 0,00 %
31.07.2015 12:05 22,4 C 34 % 1017,9 hPa 0,0 l/m 0,0 km/h (0 Bft) NO 35 5 min 0,000 mm 5,0 UV-I 777 W/m 5,8 C 22,4 C 0,0 km/h (0 Bft) 0,00 %
31.07.2015 12:10 22,9 C 33 % 1017,7 hPa 0,0 l/m 0,0 km/h (0 Bft) NO 46 5 min 0,000 mm 5,0 UV-I 817 W/m 5,8 C 22,9 C 0,0 km/h (0 Bft) 0,00 %
31.07.2015 12:15 23,5 C 31 % 1017,7 hPa 0,0 l/m 0,0 km/h (0 Bft) N-NO 28 5 min 0,000 mm 5,0 UV-I 827 W/m 5,4 C 23,5 C 0,0 km/h (0 Bft) 0,00 %
31.07.2015 12:20 24,0 C 32 % 1017,7 hPa 0,0 l/m 10,4 km/h (2 Bft) N 353 0 min 0,000 mm 2,0 UV-I 238 W/m 6,3 C 23,0 C 15,8 km/h (3 Bft) 0,00 %
31.07.2015 12:25 23,5 C 35 % 1017,6 hPa 0,0 l/m 0,0 km/h (0 Bft) N 352 0 min 0,000 mm 2,0 UV-I 217 W/m 7,1 C 23,5 C 0,0 km/h (0 Bft) 0,00 %
31.07.2015 12:30 22,4 C 35 % 1017,6 hPa 0,0 l/m 0,4 km/h (0 Bft) N 356 0 min 0,000 mm 2,0 UV-I 212 W/m 6,2 C 22,4 C 4,0 km/h (1 Bft) 0,00 %
31.07.2015 12:35 21,7 C 37 % 1017,8 hPa 0,0 l/m 0,0 km/h (0 Bft) NO 48 5 min 0,000 mm 5,0 UV-I 790 W/m 6,4 C 21,7 C 0,0 km/h (0 Bft) 0,00 %
31.07.2015 12:40 21,7 C 38 % 1017,6 hPa 0,0 l/m 0,0 km/h (0 Bft) O-NO 60 5 min 0,000 mm 5,0 UV-I 829 W/m 6,8 C 21,7 C 0,0 km/h (0 Bft) 0,00 %
31.07.2015 12:45 22,1 C 35 % 1017,3 hPa 0,0 l/m 7,2 km/h (2 Bft) W-SW 240 5 min 0,000 mm 5,0 UV-I 853 W/m 5,9 C 21,8 C 11,9 km/h (2 Bft) 0,00 %
31.07.2015 12:50 22,5 C 33 % 1017,5 hPa 0,0 l/m 0,0 km/h (0 Bft) SO 130 5 min 0,000 mm 5,0 UV-I 857 W/m 5,4 C 22,5 C 0,0 km/h (0 Bft) 0,00 %
31.07.2015 12:55 22,9 C 31 % 1017,5 hPa 0,0 l/m 1,4 km/h (1 Bft) W-SW 256 0 min 0,000 mm 3,0 UV-I 332 W/m 4,9 C 22,9 C 4,0 km/h (1 Bft) 0,00 %
31.07.2015 13:00 23,1 C 32 % 1017,4 hPa 0,0 l/m 0,0 km/h (0 Bft) NO 49 0 min 0,000 mm 2,0 UV-I 255 W/m 5,5 C 23,1 C 0,0 km/h (0 Bft) 0,00 %
31.07.2015 13:05 23,1 C 33 % 1017,4 hPa 0,0 l/m 0,0 km/h (0 Bft) NO 50 0 min 0,000 mm 2,0 UV-I 231 W/m 5,9 C 23,1 C 0,0 km/h (0 Bft) 0,00 %
31.07.2015 13:10 22,7 C 38 % 1017,2 hPa 0,0 l/m 0,0 km/h (0 Bft) N-NO 29 5 min 0,000 mm 5,0 UV-I 819 W/m 7,6 C 22,7 C 0,0 km/h (0 Bft) 0,00 %
31.07.2015 13:15 22,3 C 35 % 1017,3 hPa 0,0 l/m 0,0 km/h (0 Bft) N 354 5 min 0,000 mm 5,0 UV-I 842 W/m 6,1 C 22,3 C 0,0 km/h (0 Bft) 0,00 %
31.07.2015 13:20 22,1 C 36 % 1017,3 hPa 0,0 l/m 0,7 km/h (0 Bft) O-NO 62 0 min 0,000 mm 3,0 UV-I 353 W/m 6,3 C 22,1 C 4,0 km/h (1 Bft) 0,00 %
31.07.2015 13:25 22,0 C 34 % 1017,4 hPa 0,0 l/m 0,7 km/h (0 Bft) NO 36 5 min 0,000 mm 5,0 UV-I 873 W/m 5,4 C 22,0 C 4,0 km/h (1 Bft) 0,00 %
31.07.2015 13:30 22,1 C 34 % 1017,3 hPa 0,0 l/m 0,0 km/h (0 Bft) NO 40 5 min 0,000 mm 4,0 UV-I 872 W/m 5,5 C 22,1 C 0,0 km/h (0 Bft) 0,00 %
31.07.2015 13:35 22,5 C 31 % 1017,3 hPa 0,0 l/m 0,7 km/h (0 Bft) W-NW 290 5 min 0,000 mm 4,0 UV-I 877 W/m 4,5 C 22,5 C 4,0 km/h (1 Bft) 0,00 %
31.07.2015 13:40 23,0 C 31 % 1017,1 hPa 0,0 l/m 0,0 km/h (0 Bft) NO 53 5 min 0,000 mm 4,0 UV-I 871 W/m 5,0 C 23,0 C 0,0 km/h (0 Bft) 0,00 %
31.07.2015 13:45 23,4 C 30 % 1017,1 hPa 0,0 l/m 0,0 km/h (0 Bft) N 353 5 min 0,000 mm 4,0 UV-I 914 W/m 4,8 C 23,4 C 0,0 km/h (0 Bft) 0,00 %
31.07.2015 13:50 23,8 C 32 % 1017,0 hPa 0,0 l/m 0,0 km/h (0 Bft) NO 46 5 min 0,000 mm 4,0 UV-I 712 W/m 6,1 C 23,8 C 0,0 km/h (0 Bft) 0,00 %
31.07.2015 13:55 24,0 C 30 % 1017,0 hPa 0,0 l/m 0,0 km/h (0 Bft) NO 45 0 min 0,000 mm 2,0 UV-I 242 W/m 5,3 C 24,0 C 0,0 km/h (0 Bft) 0,00 %
31.07.2015 14:00 24,0 C 30 % 1016,8 hPa 0,0 l/m 0,7 km/h (0 Bft) S 179 0 min 0,000 mm 2,0 UV-I 248 W/m 5,3 C 24,0 C 4,0 km/h (1 Bft) 0,00 %
31.07.2015 14:05 24,0 C 29 % 1016,9 hPa 0,0 l/m 0,0 km/h (0 Bft) O-NO 76 5 min 0,000 mm 4,0 UV-I 888 W/m 4,9 C 24,0 C 0,0 km/h (0 Bft) 0,00 %
31.07.2015 14:10 23,9 C 32 % 1016,9 hPa 0,0 l/m 0,4 km/h (0 Bft) NO 41 5 min 0,000 mm 4,0 UV-I 892 W/m 6,2 C 23,9 C 4,0 km/h (1 Bft) 0,00 %
31.07.2015 14:15 23,7 C 34 % 1017,0 hPa 0,0 l/m 0,0 km/h (0 Bft) W-NW 284 5 min 0,000 mm 4,0 UV-I 903 W/m 6,9 C 23,7 C 0,0 km/h (0 Bft) 0,00 %
31.07.2015 14:20 23,7 C 32 % 1016,9 hPa 0,0 l/m 3,2 km/h (1 Bft) NO 55 5 min 0,000 mm 4,0 UV-I 961 W/m 6,0 C 23,7 C 4,0 km/h (1 Bft) 0,00 %
31.07.2015 14:25 24,0 C 30 % 1016,9 hPa 0,0 l/m 5,8 km/h (2 Bft) SO 124 5 min 0,000 mm 3,0 UV-I 487 W/m 5,3 C 24,0 C 7,9 km/h (2 Bft) 0,00 %
31.07.2015 14:30 24,0 C 31 % 1016,9 hPa 0,0 l/m 5,4 km/h (1 Bft) O-SO 116 0 min 0,000 mm 2,0 UV-I 288 W/m 5,8 C 24,0 C 7,9 km/h (2 Bft) 0,00 %
31.07.2015 14:35 23,5 C 32 % 1016,8 hPa 0,0 l/m 0,7 km/h (0 Bft) NO 44 5 min 0,000 mm 4,0 UV-I 881 W/m 5,8 C 23,5 C 4,0 km/h (1 Bft) 0,00 %
31.07.2015 14:40 23,2 C 31 % 1016,8 hPa 0,0 l/m 3,2 km/h (1 Bft) O 93 5 min 0,000 mm 3,0 UV-I 528 W/m 5,1 C 23,2 C 7,9 km/h (2 Bft) 0,00 %
31.07.2015 14:45 23,1 C 32 % 1016,9 hPa 0,0 l/m 0,4 km/h (0 Bft) N-NW 345 0 min 0,000 mm 2,0 UV-I 388 W/m 5,5 C 23,1 C 4,0 km/h (1 Bft) 0,00 %
31.07.2015 14:50 22,9 C 30 % 1016,7 hPa 0,0 l/m 4,0 km/h (1 Bft) O-SO 104 5 min 0,000 mm 4,0 UV-I 884 W/m 4,4 C 22,9 C 4,0 km/h (1 Bft) 0,00 %
31.07.2015 14:55 23,1 C 30 % 1016,8 hPa 0,0 l/m 0,0 km/h (0 Bft) O-SO 122 5 min 0,000 mm 4,0 UV-I 913 W/m 4,6 C 23,1 C 0,0 km/h (0 Bft) 0,00 %
31.07.2015 15:00 23,7 C 30 % 1016,7 hPa 0,0 l/m 0,0 km/h (0 Bft) W-NW 286 5 min 0,000 mm 4,0 UV-I 916 W/m 5,1 C 23,7 C 0,0 km/h (0 Bft) 0,00 %
31.07.2015 15:05 24,3 C 29 % 1016,7 hPa 0,0 l/m 0,0 km/h (0 Bft) W-NW 303 5 min 0,000 mm 4,0 UV-I 899 W/m 5,1 C 24,3 C 0,0 km/h (0 Bft) 0,00 %
31.07.2015 15:10 24,8 C 28 % 1016,8 hPa 0,0 l/m 0,0 km/h (0 Bft) NO 39 5 min 0,000 mm 4,0 UV-I 931 W/m 5,0 C 24,8 C 0,0 km/h (0 Bft) 0,00 %
31.07.2015 15:15 25,0 C 26 % 1016,4 hPa 0,0 l/m 0,4 km/h (0 Bft) NO 55 5 min 0,000 mm 2,0 UV-I 576 W/m 4,2 C 25,0 C 4,0 km/h (1 Bft) 0,00 %
31.07.2015 15:20 24,8 C 28 % 1016,3 hPa 0,0 l/m 6,8 km/h (2 Bft) O-NO 58 0 min 0,000 mm 2,0 UV-I 245 W/m 5,0 C 24,7 C 11,9 km/h (2 Bft) 0,00 %
31.07.2015 15:25 24,2 C 29 % 1016,5 hPa 0,0 l/m 0,0 km/h (0 Bft) NO 52 5 min 0,000 mm 3,0 UV-I 768 W/m 5,0 C 24,2 C 0,0 km/h (0 Bft) 0,00 %
31.07.2015 15:30 23,6 C 31 % 1016,4 hPa 0,0 l/m 0,0 km/h (0 Bft) NO 34 0 min 0,000 mm 2,0 UV-I 239 W/m 5,5 C 23,6 C 0,0 km/h (0 Bft) 0,00 %
31.07.2015 15:35 23,4 C 31 % 1016,4 hPa 0,0 l/m 0,0 km/h (0 Bft) N 355 5 min 0,000 mm 2,0 UV-I 623 W/m 5,3 C 23,4 C 0,0 km/h (0 Bft) 0,00 %
31.07.2015 15:40 23,3 C 29 % 1016,1 hPa 0,0 l/m 2,2 km/h (1 Bft) O 90 5 min 0,000 mm 3,0 UV-I 870 W/m 4,3 C 23,3 C 4,0 km/h (1 Bft) 0,00 %
31.07.2015 15:45 23,6 C 31 % 1016,0 hPa 0,0 l/m 0,0 km/h (0 Bft) NO 45 5 min 0,000 mm 3,0 UV-I 877 W/m 5,5 C 23,6 C 0,0 km/h (0 Bft) 0,00 %
31.07.2015 15:50 23,9 C 29 % 1016,0 hPa 0,0 l/m 0,0 km/h (0 Bft) N-NW 344 5 min 0,000 mm 3,0 UV-I 889 W/m 4,8 C 23,9 C 0,0 km/h (0 Bft) 0,00 %
31.07.2015 15:55 24,3 C 30 % 1015,9 hPa 0,0 l/m 0,4 km/h (0 Bft) NO 50 5 min 0,000 mm 3,0 UV-I 889 W/m 5,6 C 24,3 C 4,0 km/h (1 Bft) 0,00 %
31.07.2015 16:00 24,7 C 28 % 1015,7 hPa 0,0 l/m 0,0 km/h (0 Bft) N 350 5 min 0,000 mm 3,0 UV-I 875 W/m 5,0 C 24,7 C 0,0 km/h (0 Bft) 0,00 %
31.07.2015 16:06 24,9 C 26 % 1015,8 hPa 0,0 l/m 2,2 km/h (1 Bft) O 82 6 min 0,000 mm 3,0 UV-I 856 W/m 4,1 C 24,9 C 4,0 km/h (1 Bft) 0,00 %
31.07.2015 16:11 24,8 C 29 % 1015,7 hPa 0,0 l/m 0,0 km/h (0 Bft) O-NO 59 5 min 0,000 mm 3,0 UV-I 857 W/m 5,5 C 24,8 C 0,0 km/h (0 Bft) 0,00 %
31.07.2015 16:16 24,7 C 28 % 1015,5 hPa 0,0 l/m 0,7 km/h (0 Bft) O 95 5 min 0,000 mm 3,0 UV-I 820 W/m 5,0 C 24,7 C 4,0 km/h (1 Bft) 0,00 %
31.07.2015 16:21 24,6 C 26 % 1015,4 hPa 0,0 l/m 0,0 km/h (0 Bft) N-NO 30 5 min 0,000 mm 2,0 UV-I 784 W/m 3,8 C 24,6 C 0,0 km/h (0 Bft) 0,00 %
31.07.2015 16:26 24,5 C 29 % 1015,5 hPa 0,0 l/m 6,5 km/h (2 Bft) O-SO 118 5 min 0,000 mm 2,0 UV-I 828 W/m 5,3 C 24,5 C 7,9 km/h (2 Bft) 0,00 %
31.07.2015 16:31 24,4 C 28 % 1015,4 hPa 0,0 l/m 1,8 km/h (1 Bft) O 101 5 min 0,000 mm 2,0 UV-I 796 W/m 4,7 C 24,4 C 4,0 km/h (1 Bft) 0,00 %
31.07.2015 16:36 24,3 C 28 % 1015,2 hPa 0,0 l/m 5,4 km/h (1 Bft) N 8 5 min 0,000 mm 2,0 UV-I 882 W/m 4,6 C 24,3 C 7,9 km/h (2 Bft) 0,00 %
31.07.2015 16:41 24,1 C 30 % 1015,4 hPa 0,0 l/m 0,0 km/h (0 Bft) NO 47 5 min 0,000 mm 2,0 UV-I 854 W/m 5,4 C 24,1 C 0,0 km/h (0 Bft) 0,00 %
31.07.2015 16:46 24,1 C 28 % 1015,5 hPa 0,0 l/m 0,0 km/h (0 Bft) O-NO 69 5 min 0,000 mm 1,0 UV-I 839 W/m 4,4 C 24,1 C 0,0 km/h (0 Bft) 0,00 %
31.07.2015 16:51 24,3 C 28 % 1015,3 hPa 0,0 l/m 2,2 km/h (1 Bft) N-NO 25 5 min 0,000 mm 1,0 UV-I 884 W/m 4,6 C 24,3 C 7,9 km/h (2 Bft) 0,00 %
31.07.2015 16:56 24,4 C 26 % 1015,4 hPa 0,0 l/m 2,9 km/h (1 Bft) N-NO 29 5 min 0,000 mm 1,0 UV-I 709 W/m 3,6 C 24,4 C 4,0 km/h (1 Bft) 0,00 %
31.07.2015 17:01 24,3 C 30 % 1015,4 hPa 0,0 l/m 7,9 km/h (2 Bft) SO 124 5 min 0,000 mm 1,0 UV-I 718 W/m 5,6 C 23,9 C 11,9 km/h (2 Bft) 0,00 %
31.07.2015 17:06 24,0 C 30 % 1015,4 hPa 0,0 l/m 0,0 km/h (0 Bft) NO 49 5 min 0,000 mm 1,0 UV-I 849 W/m 5,3 C 24,0 C 0,0 km/h (0 Bft) 0,00 %
31.07.2015 17:11 23,8 C 29 % 1015,2 hPa 0,0 l/m 4,0 km/h (1 Bft) SO 130 5 min 0,000 mm 1,0 UV-I 822 W/m 4,7 C 23,8 C 7,9 km/h (2 Bft) 0,00 %
31.07.2015 17:16 23,9 C 29 % 1015,5 hPa 0,0 l/m 1,8 km/h (1 Bft) O 100 5 min 0,000 mm 1,0 UV-I 813 W/m 4,8 C 23,9 C 4,0 km/h (1 Bft) 0,00 %
31.07.2015 17:21 24,1 C 27 % 1015,3 hPa 0,0 l/m 0,0 km/h (0 Bft) N-NO 29 5 min 0,000 mm 1,0 UV-I 814 W/m 3,9 C 24,1 C 0,0 km/h (0 Bft) 0,00 %
31.07.2015 17:26 24,3 C 26 % 1015,3 hPa 0,0 l/m 0,0 km/h (0 Bft) NO 56 5 min 0,000 mm 1,0 UV-I 797 W/m 3,6 C 24,3 C 0,0 km/h (0 Bft) 0,00 %
31.07.2015 17:31 24,6 C 27 % 1015,4 hPa 0,0 l/m 0,0 km/h (0 Bft) N 9 5 min 0,000 mm 1,0 UV-I 798 W/m 4,4 C 24,6 C 0,0 km/h (0 Bft) 0,00 %
31.07.2015 17:36 24,5 C 27 % 1015,2 hPa 0,0 l/m 5,8 km/h (2 Bft) O-SO 122 5 min 0,000 mm 1,0 UV-I 787 W/m 4,3 C 24,5 C 7,9 km/h (2 Bft) 0,00 %
31.07.2015 17:41 24,2 C 28 % 1015,1 hPa 0,0 l/m 0,0 km/h (0 Bft) N-NO 16 5 min 0,000 mm 1,0 UV-I 757 W/m 4,5 C 24,2 C 0,0 km/h (0 Bft) 0,00 %
31.07.2015 17:46 24,0 C 30 % 1015,0 hPa 0,0 l/m 6,5 km/h (2 Bft) O-SO 109 5 min 0,000 mm 1,0 UV-I 754 W/m 5,3 C 24,0 C 11,9 km/h (2 Bft) 0,00 %
31.07.2015 17:51 24,0 C 29 % 1015,0 hPa 0,0 l/m 9,0 km/h (2 Bft) O-SO 122 5 min 0,000 mm 1,0 UV-I 750 W/m 4,9 C 23,3 C 11,9 km/h (2 Bft) 0,00 %
31.07.2015 17:56 24,0 C 30 % 1015,0 hPa 0,0 l/m 7,2 km/h (2 Bft) O 86 5 min 0,000 mm 1,0 UV-I 740 W/m 5,3 C 23,8 C 11,9 km/h (2 Bft) 0,00 %
31.07.2015 18:01 24,0 C 30 % 1014,9 hPa 0,0 l/m 4,0 km/h (1 Bft) N 356 5 min 0,000 mm 1,0 UV-I 727 W/m 5,3 C 24,0 C 7,9 km/h (2 Bft) 0,00 %
31.07.2015 18:06 24,0 C 31 % 1014,8 hPa 0,0 l/m 4,3 km/h (1 Bft) O 97 5 min 0,000 mm 1,0 UV-I 715 W/m 5,8 C 24,0 C 7,9 km/h (2 Bft) 0,00 %
31.07.2015 18:11 23,8 C 30 % 1014,9 hPa 0,0 l/m 8,3 km/h (2 Bft) SO 129 5 min 0,000 mm 1,0 UV-I 697 W/m 5,2 C 23,3 C 11,9 km/h (2 Bft) 0,00 %
31.07.2015 18:16 23,6 C 31 % 1014,7 hPa 0,0 l/m 7,2 km/h (2 Bft) S-SO 154 5 min 0,000 mm 1,0 UV-I 684 W/m 5,5 C 23,4 C 7,9 km/h (2 Bft) 0,00 %
31.07.2015 18:21 23,4 C 31 % 1014,8 hPa 0,0 l/m 7,2 km/h (2 Bft) O 100 5 min 0,000 mm 1,0 UV-I 669 W/m 5,3 C 23,2 C 7,9 km/h (2 Bft) 0,00 %
31.07.2015 18:26 23,3 C 31 % 1014,8 hPa 0,0 l/m 7,9 km/h (2 Bft) O 88 5 min 0,000 mm 1,0 UV-I 662 W/m 5,2 C 22,8 C 11,9 km/h (2 Bft) 0,00 %
31.07.2015 18:31 23,3 C 32 % 1014,8 hPa 0,0 l/m 7,2 km/h (2 Bft) O-NO 73 5 min 0,000 mm 1,0 UV-I 646 W/m 5,7 C 23,1 C 11,9 km/h (2 Bft) 0,00 %
31.07.2015 18:36 23,3 C 31 % 1014,7 hPa 0,0 l/m 0,4 km/h (0 Bft) O-SO 104 5 min 0,000 mm 1,0 UV-I 607 W/m 5,2 C 23,3 C 4,0 km/h (1 Bft) 0,00 %
31.07.2015 18:41 23,3 C 31 % 1014,8 hPa 0,0 l/m 6,5 km/h (2 Bft) NO 56 5 min 0,000 mm 1,0 UV-I 620 W/m 5,2 C 23,3 C 7,9 km/h (2 Bft) 0,00 %
31.07.2015 18:46 23,3 C 32 % 1014,7 hPa 0,0 l/m 1,4 km/h (1 Bft) NO 42 5 min 0,000 mm 1,0 UV-I 604 W/m 5,7 C 23,3 C 4,0 km/h (1 Bft) 0,00 %
31.07.2015 18:51 23,3 C 31 % 1014,6 hPa 0,0 l/m 1,8 km/h (1 Bft) O-SO 107 5 min 0,000 mm 1,0 UV-I 588 W/m 5,2 C 23,3 C 4,0 km/h (1 Bft) 0,00 %
31.07.2015 18:56 23,4 C 33 % 1014,7 hPa 0,0 l/m 9,0 km/h (2 Bft) O-SO 118 5 min 0,000 mm 1,0 UV-I 519 W/m 6,2 C 22,6 C 11,9 km/h (2 Bft) 0,00 %
31.07.2015 19:01 23,4 C 31 % 1014,7 hPa 0,0 l/m 2,2 km/h (1 Bft) N 351 5 min 0,000 mm 1,0 UV-I 434 W/m 5,3 C 23,4 C 7,9 km/h (2 Bft) 0,00 %
31.07.2015 19:06 23,2 C 32 % 1014,7 hPa 0,0 l/m 2,9 km/h (1 Bft) O-SO 116 5 min 0,000 mm 1,0 UV-I 522 W/m 5,6 C 23,2 C 7,9 km/h (2 Bft) 0,00 %
31.07.2015 19:11 23,0 C 33 % 1014,6 hPa 0,0 l/m 4,7 km/h (1 Bft) O 101 5 min 0,000 mm 1,0 UV-I 502 W/m 5,9 C 23,0 C 7,9 km/h (2 Bft) 0,00 %
31.07.2015 19:16 22,9 C 32 % 1014,5 hPa 0,0 l/m 0,0 km/h (0 Bft) N-NO 14 5 min 0,000 mm 1,0 UV-I 408 W/m 5,3 C 22,9 C 0,0 km/h (0 Bft) 0,00 %
31.07.2015 19:21 22,8 C 33 % 1014,5 hPa 0,0 l/m 0,0 km/h (0 Bft) O-NO 69 5 min 0,000 mm 1,0 UV-I 405 W/m 5,7 C 22,8 C 0,0 km/h (0 Bft) 0,00 %
31.07.2015 19:26 22,7 C 33 % 1014,7 hPa 0,0 l/m 3,2 km/h (1 Bft) O-SO 111 5 min 0,000 mm 0,0 UV-I 408 W/m 5,6 C 22,7 C 7,9 km/h (2 Bft) 0,00 %
31.07.2015 19:31 22,7 C 34 % 1014,6 hPa 0,0 l/m 1,4 km/h (1 Bft) O-NO 77 5 min 0,000 mm 0,0 UV-I 406 W/m 6,0 C 22,7 C 4,0 km/h (1 Bft) 0,00 %
31.07.2015 19:36 22,7 C 33 % 1014,6 hPa 0,0 l/m 0,0 km/h (0 Bft) N-NO 32 5 min 0,000 mm 0,0 UV-I 272 W/m 5,6 C 22,7 C 0,0 km/h (0 Bft) 0,00 %
31.07.2015 19:41 22,6 C 33 % 1014,6 hPa 0,0 l/m 4,3 km/h (1 Bft) N 356 5 min 0,000 mm 0,0 UV-I 226 W/m 5,5 C 22,6 C 7,9 km/h (2 Bft) 0,00 %
31.07.2015 19:46 22,3 C 33 % 1014,6 hPa 0,0 l/m 4,7 km/h (1 Bft) O-SO 114 5 min 0,000 mm 0,0 UV-I 221 W/m 5,2 C 22,3 C 7,9 km/h (2 Bft) 0,00 %
31.07.2015 19:51 21,9 C 33 % 1014,5 hPa 0,0 l/m 0,0 km/h (0 Bft) O-SO 119 5 min 0,000 mm 0,0 UV-I 98 W/m 4,9 C 21,9 C 0,0 km/h (0 Bft) 0,00 %
31.07.2015 19:56 21,6 C 34 % 1014,5 hPa 0,0 l/m 0,0 km/h (0 Bft) O 82 5 min 0,000 mm 0,0 UV-I 99 W/m 5,1 C 21,6 C 0,0 km/h (0 Bft) 0,00 %
31.07.2015 20:01 21,3 C 37 % 1014,5 hPa 0,0 l/m 0,7 km/h (0 Bft) O-SO 110 5 min 0,000 mm 0,0 UV-I 63 W/m 6,0 C 21,3 C 4,0 km/h (1 Bft) 0,00 %
31.07.2015 20:06 20,9 C 37 % 1014,5 hPa 0,0 l/m 0,0 km/h (0 Bft) O 97 5 min 0,000 mm 0,0 UV-I 44 W/m 5,7 C 20,9 C 0,0 km/h (0 Bft) 0,00 %
31.07.2015 20:11 20,5 C 39 % 1014,6 hPa 0,0 l/m 0,7 km/h (0 Bft) O 97 5 min 0,000 mm 0,0 UV-I 37 W/m 6,1 C 20,5 C 4,0 km/h (1 Bft) 0,00 %
31.07.2015 20:16 20,0 C 40 % 1014,6 hPa 0,0 l/m 0,0 km/h (0 Bft) NO 44 5 min 0,000 mm 0,0 UV-I 29 W/m 6,0 C 20,0 C 0,0 km/h (0 Bft) 0,00 %
31.07.2015 20:21 19,7 C 40 % 1014,4 hPa 0,0 l/m 0,0 km/h (0 Bft) O-NO 76 0 min 0,000 mm 0,0 UV-I 21 W/m 5,7 C 19,7 C 0,0 km/h (0 Bft) 0,00 %
31.07.2015 20:26 19,4 C 41 % 1014,5 hPa 0,0 l/m 0,0 km/h (0 Bft) O-NO 66 0 min 0,000 mm 0,0 UV-I 11 W/m 5,8 C 19,4 C 0,0 km/h (0 Bft) 0,00 %
31.07.2015 20:31 19,1 C 43 % 1014,5 hPa 0,0 l/m 0,0 km/h (0 Bft) O-NO 74 0 min 0,000 mm 0,0 UV-I 5 W/m 6,2 C 19,1 C 0,0 km/h (0 Bft) 0,00 %
31.07.2015 20:36 18,8 C 43 % 1014,7 hPa 0,0 l/m 0,0 km/h (0 Bft) NO 51 0 min 0,000 mm 0,0 UV-I 0 W/m 6,0 C 18,8 C 0,0 km/h (0 Bft) 0,00 %
31.07.2015 20:41 18,5 C 45 % 1014,5 hPa 0,0 l/m 0,0 km/h (0 Bft) O-NO 78 0 min 0,000 mm 0,0 UV-I 0 W/m 6,3 C 18,5 C 0,0 km/h (0 Bft) 0,00 %
31.07.2015 20:46 18,1 C 45 % 1014,7 hPa 0,0 l/m 0,0 km/h (0 Bft) O-NO 61 0 min 0,000 mm 0,0 UV-I 0 W/m 6,0 C 18,1 C 0,0 km/h (0 Bft) 0,00 %
31.07.2015 20:51 17,9 C 46 % 1014,5 hPa 0,0 l/m 0,0 km/h (0 Bft) O-NO 59 0 min 0,000 mm 0,0 UV-I 0 W/m 6,1 C 17,9 C 0,0 km/h (0 Bft) 0,00 %
31.07.2015 20:56 17,6 C 47 % 1014,5 hPa 0,0 l/m 0,0 km/h (0 Bft) NO 51 0 min 0,000 mm 0,0 UV-I 0 W/m 6,2 C 17,6 C 0,0 km/h (0 Bft) 0,00 %
31.07.2015 21:01 17,4 C 47 % 1014,6 hPa 0,0 l/m 0,7 km/h (0 Bft) O 98 0 min 0,000 mm 0,0 UV-I 0 W/m 6,0 C 17,4 C 4,0 km/h (1 Bft) 0,00 %
31.07.2015 21:06 17,2 C 48 % 1014,6 hPa 0,0 l/m 0,0 km/h (0 Bft) O 81 0 min 0,000 mm 0,0 UV-I 0 W/m 6,1 C 17,2 C 0,0 km/h (0 Bft) 0,00 %
31.07.2015 21:11 17,0 C 48 % 1014,7 hPa 0,0 l/m 0,0 km/h (0 Bft) O 92 0 min 0,000 mm 0,0 UV-I 0 W/m 5,9 C 17,0 C 0,0 km/h (0 Bft) 0,00 %
31.07.2015 21:16 16,8 C 48 % 1014,6 hPa 0,0 l/m 0,0 km/h (0 Bft) O-NO 60 0 min 0,000 mm 0,0 UV-I 0 W/m 5,7 C 16,8 C 0,0 km/h (0 Bft) 0,00 %
31.07.2015 21:21 16,7 C 48 % 1014,5 hPa 0,0 l/m 0,0 km/h (0 Bft) O-NO 74 0 min 0,000 mm 0,0 UV-I 0 W/m 5,6 C 16,7 C 0,0 km/h (0 Bft) 0,00 %
31.07.2015 21:26 16,7 C 49 % 1014,6 hPa 0,0 l/m 0,0 km/h (0 Bft) O-NO 60 0 min 0,000 mm 0,0 UV-I 0 W/m 5,9 C 16,7 C 0,0 km/h (0 Bft) 0,00 %
31.07.2015 21:31 16,5 C 48 % 1014,5 hPa 0,0 l/m 0,0 km/h (0 Bft) O-NO 60 0 min 0,000 mm 0,0 UV-I 0 W/m 5,5 C 16,5 C 0,0 km/h (0 Bft) 0,00 %
31.07.2015 21:36 16,4 C 49 % 1014,9 hPa 0,0 l/m 0,7 km/h (0 Bft) O 89 0 min 0,000 mm 0,0 UV-I 0 W/m 5,7 C 16,4 C 4,0 km/h (1 Bft) 0,00 %
31.07.2015 21:41 16,4 C 49 % 1014,5 hPa 0,0 l/m 2,2 km/h (1 Bft) O-NO 77 0 min 0,000 mm 0,0 UV-I 0 W/m 5,7 C 16,4 C 4,0 km/h (1 Bft) 0,00 %
31.07.2015 21:46 16,4 C 50 % 1014,8 hPa 0,0 l/m 0,0 km/h (0 Bft) O-NO 64 0 min 0,000 mm 0,0 UV-I 0 W/m 6,0 C 16,4 C 0,0 km/h (0 Bft) 0,00 %
31.07.2015 21:51 16,3 C 50 % 1014,7 hPa 0,0 l/m 0,0 km/h (0 Bft) NO 53 0 min 0,000 mm 0,0 UV-I 0 W/m 5,9 C 16,3 C 0,0 km/h (0 Bft) 0,00 %
31.07.2015 21:56 16,3 C 51 % 1014,6 hPa 0,0 l/m 0,0 km/h (0 Bft) O-NO 57 0 min 0,000 mm 0,0 UV-I 0 W/m 6,1 C 16,3 C 0,0 km/h (0 Bft) 0,00 %
31.07.2015 22:01 16,1 C 53 % 1014,6 hPa 0,0 l/m 0,7 km/h (0 Bft) O 100 0 min 0,000 mm 0,0 UV-I 0 W/m 6,5 C 16,1 C 4,0 km/h (1 Bft) 0,00 %
31.07.2015 22:06 16,1 C 52 % 1014,7 hPa 0,0 l/m 0,0 km/h (0 Bft) O-NO 63 0 min 0,000 mm 0,0 UV-I 0 W/m 6,2 C 16,1 C 0,0 km/h (0 Bft) 0,00 %
31.07.2015 22:11 16,0 C 54 % 1014,6 hPa 0,0 l/m 1,8 km/h (1 Bft) SO 135 0 min 0,000 mm 0,0 UV-I 0 W/m 6,7 C 16,0 C 4,0 km/h (1 Bft) 0,00 %
31.07.2015 22:16 15,9 C 53 % 1014,2 hPa 0,0 l/m 0,4 km/h (0 Bft) O-NO 71 0 min 0,000 mm 0,0 UV-I 0 W/m 6,3 C 15,9 C 4,0 km/h (1 Bft) 0,00 %
31.07.2015 22:21 15,9 C 53 % 1014,3 hPa 0,0 l/m 2,2 km/h (1 Bft) SO 128 0 min 0,000 mm 0,0 UV-I 0 W/m 6,3 C 15,9 C 4,0 km/h (1 Bft) 0,00 %
31.07.2015 22:26 15,9 C 53 % 1014,3 hPa 0,0 l/m 0,4 km/h (0 Bft) O 98 0 min 0,000 mm 0,0 UV-I 0 W/m 6,3 C 15,9 C 4,0 km/h (1 Bft) 0,00 %
31.07.2015 22:31 16,0 C 53 % 1014,3 hPa 0,0 l/m 0,0 km/h (0 Bft) O 94 0 min 0,000 mm 0,0 UV-I 0 W/m 6,4 C 16,0 C 0,0 km/h (0 Bft) 0,00 %
31.07.2015 22:36 16,0 C 53 % 1014,4 hPa 0,0 l/m 0,7 km/h (0 Bft) O 92 0 min 0,000 mm 0,0 UV-I 0 W/m 6,4 C 16,0 C 4,0 km/h (1 Bft) 0,00 %
31.07.2015 22:41 16,1 C 53 % 1014,4 hPa 0,0 l/m 0,7 km/h (0 Bft) N 7 0 min 0,000 mm 0,0 UV-I 0 W/m 6,5 C 16,1 C 4,0 km/h (1 Bft) 0,00 %
31.07.2015 22:46 16,1 C 53 % 1014,2 hPa 0,0 l/m 0,0 km/h (0 Bft) NO 44 0 min 0,000 mm 0,0 UV-I 0 W/m 6,5 C 16,1 C 0,0 km/h (0 Bft) 0,00 %
31.07.2015 22:51 16,1 C 53 % 1014,4 hPa 0,0 l/m 0,0 km/h (0 Bft) NO 41 0 min 0,000 mm 0,0 UV-I 0 W/m 6,5 C 16,1 C 0,0 km/h (0 Bft) 0,00 %
31.07.2015 22:56 16,1 C 53 % 1014,3 hPa 0,0 l/m 0,0 km/h (0 Bft) O-NO 76 0 min 0,000 mm 0,0 UV-I 0 W/m 6,5 C 16,1 C 0,0 km/h (0 Bft) 0,00 %
31.07.2015 23:01 16,1 C 52 % 1014,1 hPa 0,0 l/m 0,7 km/h (0 Bft) O 97 0 min 0,000 mm 0,0 UV-I 0 W/m 6,2 C 16,1 C 4,0 km/h (1 Bft) 0,00 %
31.07.2015 23:06 16,1 C 52 % 1014,1 hPa 0,0 l/m 1,8 km/h (1 Bft) SW 226 0 min 0,000 mm 0,0 UV-I 0 W/m 6,2 C 16,1 C 4,0 km/h (1 Bft) 0,00 %
31.07.2015 23:11 16,1 C 52 % 1014,0 hPa 0,0 l/m 0,0 km/h (0 Bft) NO 46 0 min 0,000 mm 0,0 UV-I 0 W/m 6,2 C 16,1 C 0,0 km/h (0 Bft) 0,00 %
31.07.2015 23:16 16,2 C 52 % 1013,9 hPa 0,0 l/m 0,0 km/h (0 Bft) NO 55 0 min 0,000 mm 0,0 UV-I 0 W/m 6,3 C 16,2 C 0,0 km/h (0 Bft) 0,00 %
31.07.2015 23:21 16,1 C 52 % 1013,9 hPa 0,0 l/m 0,0 km/h (0 Bft) O-NO 62 0 min 0,000 mm 0,0 UV-I 0 W/m 6,2 C 16,1 C 0,0 km/h (0 Bft) 0,00 %
31.07.2015 23:26 16,0 C 54 % 1013,8 hPa 0,0 l/m 0,0 km/h (0 Bft) O-NO 63 0 min 0,000 mm 0,0 UV-I 0 W/m 6,7 C 16,0 C 0,0 km/h (0 Bft) 0,00 %
31.07.2015 23:31 15,8 C 54 % 1013,8 hPa 0,0 l/m 0,0 km/h (0 Bft) NO 45 0 min 0,000 mm 0,0 UV-I 0 W/m 6,5 C 15,8 C 0,0 km/h (0 Bft) 0,00 %
31.07.2015 23:36 15,7 C 55 % 1013,8 hPa 0,0 l/m 0,0 km/h (0 Bft) NO 48 0 min 0,000 mm 0,0 UV-I 0 W/m 6,7 C 15,7 C 0,0 km/h (0 Bft) 0,00 %
31.07.2015 23:41 15,7 C 55 % 1013,9 hPa 0,0 l/m 4,7 km/h (1 Bft) O-NO 63 0 min 0,000 mm 0,0 UV-I 0 W/m 6,7 C 15,7 C 7,9 km/h (2 Bft) 0,00 %
31.07.2015 23:46 15,7 C 54 % 1013,8 hPa 0,0 l/m 0,0 km/h (0 Bft) O-SO 115 0 min 0,000 mm 0,0 UV-I 0 W/m 6,4 C 15,7 C 0,0 km/h (0 Bft) 0,00 %
31.07.2015 23:51 15,7 C 54 % 1013,8 hPa 0,0 l/m 1,8 km/h (1 Bft) O-NO 70 0 min 0,000 mm 0,0 UV-I 0 W/m 6,4 C 15,7 C 4,0 km/h (1 Bft) 0,00 %
31.07.2015 23:56 15,7 C 54 % 1013,9 hPa 0,0 l/m 0,7 km/h (0 Bft) O-NO 76 0 min 0,000 mm 0,0 UV-I 0 W/m 6,4 C 15,7 C 4,0 km/h (1 Bft) 0,00 %
_ Min-Zeit 05:50 15:15 23:26 - 00:00 - - - - - - 17:26 05:50 00:00 00:00
Minimum _ 11,0 C 26 % 1013,8 hPa - 0,0 km/h (0 Bft) - - - - - - 3,6 C 11,0 C 0,0 km/h (0 Bft) 0,00 %
_ Max-Zeit 15:15 06:15 09:00 00:00 12:20 - - 16:06 00:00 12:05 14:20 08:50 15:15 12:20 00:00
Maximum _ 25,0 C 94 % 1018,6 hPa 0,0 l/m 10,4 km/h
N (2 Bft)
- - 6 min 0,000 mm 5,0 UV-I 961 W/m 11,9 C 25,0 C 15,8 km/h
N (3 Bft)
0,00 %
Durchschnitt _ 18,8 C 54 % 1016,4 hPa #0,0 l/m 0,9 km/h (0 Bft) O-SO - #11:26 h #0,000 mm 2,3 UV-I 514 W/m 7,8 C 18,8 C 1,9 km/h (1 Bft) 0,00 %